Frederick, OK

3:57 PM CDT on April 23, 2017 (GMT -0500)
Frederick Municipal

Weather History for KFDR - November, 2011

Change the Weather History Date:

Sunday, November 20, 2011

  Actual Average (KLTS) Record (KLTS)
Temperature  
Mean Temperature 42 °F -  
Max Temperature 48 °F 57 °F 82 °F (2007)
Min Temperature 37 °F 35 °F 26 °F (2000)
Degree Days  
Heating Degree Days 22    
Moisture  
Dew Point 33 °F    
Average Humidity 70    
Maximum Humidity 83    
Minimum Humidity 61    
Precipitation  
Precipitation 0.00 in - - ()
Sea Level Pressure  
Sea Level Pressure 30.09 in    
Wind  
Wind Speed 15 mph (North)    
Max Wind Speed 23 mph    
Max Gust Speed 30 mph    
Visibility 10 miles    
Events      
Averages and records for this station are not official NWS values.
T = Trace of Precipitation, MM = Missing Value Source: NWS Daily Summary

Daily Weather History Graph

Daily Weather History Graph

Search for Another Location

Airport or City:

Trip Planner

Search our weather history database for the weather conditions in past years. The results will help you decide how hot, cold, wet, or windy it might be!

Date:

Astronomy

Nov. 20, 2011 Rise Set
Actual Time 7:13 AM CST 5:29 PM CST
Civil Twilight 6:46 AM CST 5:56 PM CST
Nautical Twilight 6:16 AM CST 6:26 PM CST
Astronomical Twilight 5:46 AM CST 6:56 PM CST
Moon 1:56 AM CST (11/20) 2:08 PM CST (11/20)
Length of Visible Light 11h 09m
Length of Day
10h 15m
Waning Crescent, 27% of the Moon is Illuminated
Nov 20
Waning Crescent
Nov 25
New
Dec 2
First Quarter
Dec 10
Full
Dec 17
Last Quarter

Hourly Weather History & Observations

Time (CST) Temp. Windchill Dew Point Humidity Pressure Visibility Wind Dir Wind Speed Gust Speed Precip Events Conditions
12:53 AM 48.0 °F - 43.0 °F 83% 29.87 in 10.0 mi NNE 11.5 mph - N/A   Clear
1:53 AM 46.0 °F 40.2 °F 39.9 °F 79% 29.88 in 10.0 mi North 12.7 mph - N/A   Clear
2:53 AM 44.1 °F 36.5 °F 36.0 °F 73% 29.93 in 10.0 mi North 17.3 mph - N/A   Clear
3:53 AM 39.9 °F 30.2 °F 33.1 °F 77% 29.97 in 10.0 mi North 20.7 mph - N/A   Clear
4:42 AM 39.2 °F 29.8 °F 32.0 °F 75% 30.00 in 10.0 mi North 18.4 mph - N/A   Mostly Cloudy
4:53 AM 39.9 °F 30.2 °F 32.0 °F 73% 29.99 in 10.0 mi North 20.7 mph - N/A   Overcast
5:39 AM 39.2 °F 29.0 °F 32.0 °F 75% 30.03 in 10.0 mi North 21.9 mph 29.9 mph N/A   Overcast
6:04 AM 39.2 °F 29.6 °F 32.0 °F 75% 30.05 in 10.0 mi North 19.6 mph - N/A   Overcast
6:36 AM 39.2 °F 28.7 °F 32.0 °F 75% 30.08 in 10.0 mi North 23.0 mph - N/A   Overcast
6:53 AM 39.0 °F 28.8 °F 32.0 °F 76% 30.08 in 10.0 mi North 21.9 mph - N/A   Overcast
7:53 AM 37.0 °F 26.7 °F 32.0 °F 82% 30.12 in 8.0 mi North 19.6 mph - N/A   Overcast
8:53 AM 37.9 °F 27.9 °F 32.0 °F 79% 30.13 in 9.0 mi North 19.6 mph - N/A   Overcast
9:53 AM 39.0 °F 29.6 °F 32.0 °F 76% 30.15 in 10.0 mi North 18.4 mph - N/A   Overcast
10:53 AM 41.0 °F 34.3 °F 32.0 °F 70% 30.18 in 10.0 mi North 11.5 mph - N/A   Overcast
11:16 AM 41.0 °F 34.7 °F 32.0 °F 70% 30.19 in 10.0 mi North 10.4 mph - N/A   Overcast
12:16 PM 44.6 °F 37.4 °F 33.8 °F 66% 30.15 in 10.0 mi North 16.1 mph - N/A   Partly Cloudy
12:53 PM 43.0 °F 35.1 °F 32.0 °F 65% 30.14 in 10.0 mi NNW 17.3 mph - N/A   Clear
1:53 PM 45.0 °F 38.2 °F 33.1 °F 63% 30.12 in 10.0 mi North 15.0 mph - N/A   Overcast
2:53 PM 46.0 °F 41.4 °F 33.1 °F 61% 30.13 in 10.0 mi North 9.2 mph - N/A   Overcast
3:53 PM 46.0 °F 40.6 °F 33.1 °F 61% 30.12 in 10.0 mi North 11.5 mph - N/A   Overcast
4:53 PM 46.0 °F 40.6 °F 33.1 °F 61% 30.12 in 10.0 mi North 11.5 mph - N/A   Overcast
5:07 PM 44.6 °F 38.8 °F 33.8 °F 66% 30.11 in 10.0 mi North 11.5 mph - N/A   Overcast
5:53 PM 45.0 °F 38.2 °F 33.1 °F 63% 30.12 in 10.0 mi North 15.0 mph - N/A   Overcast
6:53 PM 44.1 °F 38.1 °F 32.0 °F 63% 30.16 in 10.0 mi North 11.5 mph - N/A   Overcast
8:53 PM 43.0 °F 38.2 °F 32.0 °F 65% 30.16 in 10.0 mi North 8.1 mph - N/A   Overcast
9:53 PM 43.0 °F 38.8 °F 33.1 °F 68% 30.16 in 10.0 mi NNW 6.9 mph - N/A   Overcast
10:53 PM 44.1 °F 40.1 °F 33.1 °F 65% 30.15 in 10.0 mi North 6.9 mph - N/A   Overcast
11:53 PM 44.1 °F 40.8 °F 33.1 °F 65% 30.15 in 10.0 mi NNE 5.8 mph - N/A   Overcast